QPF
0.05 0.07 0.09 0.09 0.13 0.16 0.21 0.23 0.21 0.19 0.21 0.22 0.13 0.10 0.11 0.09 0.04 0.05 0.02 0.00 0.00 0.00 0.00 0.01 0.01 0.01 0.01 0.02 0.02 0.03 0.05 0.07 0.08 0.10 0.10 0.11 0.12 0.16
0.06 0.06 0.08 0.10 0.14 0.17 0.20 0.23 0.24 0.24 0.25 0.22 0.12 0.09 0.08 0.05 0.04 0.05 0.03 0.02 0.01 0.01 0.01 0.00 0.01 0.01 0.01 0.01 0.01 0.01 0.01 0.02 0.02 0.05 0.07 0.09 0.11 0.16
0.03 0.05 0.08 0.12 0.16 0.18 0.20 0.22 0.25 0.28 0.25 0.17 0.10 0.08 0.05 0.05 0.05 0.04 0.03 0.02 0.02 0.02 0.01 0.01 0.00 0.00 0.00 0.01 0.01 0.01 0.01 0.01 0.01 0.01 0.02 0.04 0.05 0.07
0.03 0.05 0.06 0.08 0.12 0.15 0.19 0.21 0.25 0.30 0.27 0.15 0.11 0.08 0.06 0.06 0.07 0.07 0.05 0.03 0.02 0.02 0.01 0.01 0.01 0.00 0.00 0.00 0.00 0.00 0.00 0.00 0.00 0.00 0.00 0.01 0.01 0.02
0.03 0.03 0.03 0.06 0.09 0.11 0.14 0.18 0.22 0.30 0.27 0.16 0.11 0.09 0.08 0.07 0.09 0.09 0.08 0.06 0.04 0.03 0.02 0.01 0.00 0.00 0.00 0.00 0.00 0.00 0.00 0.00 0.00 0.00 0.00 0.00 0.00 0.00
0.02 0.02 0.02 0.03 0.07 0.10 0.12 0.14 0.16 0.18 0.17 0.13 0.10 0.09 0.10 0.11 0.10 0.10 0.08 0.06 0.03 0.02 0.01 0.01 0.00 0.00 0.00 0.00 0.00 0.00 0.00 0.00 0.00 0.00 0.00 0.00 0.00 0.00
0.04 0.02 0.01 0.02 0.03 0.07 0.10 0.12 0.14 0.13 0.14 0.13 0.11 0.11 0.12 0.13 0.12 0.09 0.07 0.05 0.03 0.02 0.02 0.02 0.01 0.01 0.00 0.00 0.00 0.00 0.00 0.00 0.00 0.00 0.00 0.00 0.00 0.00
0.06 0.03 0.01 0.01 0.03 0.05 0.07 0.11 0.14 0.13 0.14 0.15 0.16 0.14 0.13 0.13 0.11 0.08 0.06 0.04 0.04 0.05 0.06 0.05 0.03 0.02 0.00 0.00 0.00 0.00 0.00 0.00 0.00 0.00 0.00 0.00 0.00 0.00
0.07 0.05 0.03 0.02 0.03 0.03 0.04 0.05 0.08 0.11 0.12 0.13 0.16 0.15 0.14 0.12 0.09 0.07 0.07 0.06 0.04 0.03 0.04 0.04 0.02 0.01 0.00 0.00 0.00 0.00 0.00 0.00 0.00 0.00 0.00 0.00 0.00 0.00
0.06 0.04 0.03 0.02 0.02 0.02 0.03 0.04 0.04 0.05 0.07 0.10 0.12 0.12 0.09 0.07 0.07 0.07 0.06 0.04 0.03 0.02 0.02 0.03 0.02 0.01 0.00 0.00 0.00 0.00 0.00 0.00 0.00 0.00 0.00 0.00 0.00 0.00
0.06 0.04 0.03 0.03 0.01 0.01 0.03 0.03 0.03 0.03 0.04 0.05 0.06 0.06 0.05 0.04 0.03 0.02 0.01 0.01 0.01 0.01 0.01 0.02 0.02 0.02 0.02 0.01 0.00 0.00 0.00 0.00 0.00 0.00 0.00 0.00 0.00 0.00
0.07 0.04 0.02 0.01 0.01 0.01 0.02 0.02 0.02 0.01 0.01 0.01 0.01 0.01 0.01 0.01 0.01 0.01 0.01 0.00 0.00 0.00 0.00 0.01 0.01 0.02 0.03 0.01 0.00 0.00 0.00 0.00 0.00 0.00 0.00 0.00 0.00 0.00
0.07 0.03 0.01 0.00 0.00 0.00 0.01 0.02 0.01 0.00 0.00 0.00 0.00 0.00 0.00 0.00 0.00 0.00 0.00 0.00 0.00 0.00 0.00 0.00 0.00 0.01 0.01 0.01 0.00 0.00 0.00 0.00 0.00 0.00 0.00 0.00 0.00 0.00
0.08 0.03 0.01 0.01 0.00 0.00 0.01 0.01 0.00 0.00 0.00 0.00 0.00 0.00 0.00 0.00 0.00 0.00 0.00 0.00 0.00 0.00 0.00 0.00 0.00 0.00 0.00 0.00 0.00 0.00 0.00 0.00 0.00 0.00 0.00 0.00 0.00 0.00
0.08 0.03 0.01 0.00 0.00 0.00 0.00 0.00 0.00 0.00 0.00 0.00 0.00 0.00 0.00 0.00 0.00 0.00 0.00 0.00 0.00 0.00 0.00 0.00 0.00 0.00 0.00 0.00 0.00 0.00 0.00 0.00 0.00 0.00 0.00 0.00 0.00 0.00
0.09 0.02 0.01 0.00 0.00 0.00 0.00 0.00 0.00 0.00 0.00 0.00 0.00 0.00 0.00 0.00 0.00 0.00 0.00 0.00 0.00 0.00 0.00 0.00 0.00 0.00 0.00 0.00 0.00 0.00 0.00 0.00 0.00 0.00 0.00 0.00 0.00 0.00
0.11 0.02 0.00 0.00 0.00 0.00 0.00 0.00 0.00 0.00 0.00 0.00 0.00 0.00 0.00 0.00 0.00 0.00 0.00 0.00 0.00 0.00 0.00 0.00 0.00 0.00 0.00 0.00 0.00 0.00 0.00 0.00 0.00 0.00 0.00 0.00 0.00 0.00
0.11 0.02 0.00 0.00 0.00 0.00 0.00 0.00 0.00 0.00 0.00 0.00 0.00 0.00 0.00 0.00 0.00 0.00 0.00 0.00 0.00 0.00 0.00 0.00 0.00 0.00 0.00 0.00 0.00 0.00 0.00 0.00 0.00 0.00 0.00 0.00 0.00 0.00
0.08 0.02 0.00 0.00 0.00 0.00 0.00 0.00 0.00 0.00 0.00 0.00 0.00 0.00 0.00 0.00 0.00 0.00 0.00 0.00 0.00 0.00 0.00 0.00 0.00 0.00 0.00 0.00 0.00 0.00 0.00 0.00 0.00 0.00 0.00 0.00 0.00 0.00
0.04 0.01 0.00 0.00 0.00 0.00 0.00 0.00 0.00 0.00 0.00 0.00 0.00 0.00 0.00 0.00 0.00 0.00 0.00 0.00 0.00 0.00 0.00 0.00 0.00 0.00 0.00 0.00 0.00 0.00 0.00 0.00 0.00 0.00 0.00 0.00 0.00 0.00
0.02 0.00 0.00 0.00 0.00 0.00 0.00 0.00 0.00 0.00 0.00 0.00 0.00 0.00 0.00 0.00 0.00 0.00 0.00 0.00 0.00 0.00 0.00 0.00 0.00 0.00 0.00 0.00 0.00 0.00 0.00 0.00 0.00 0.00 0.00 0.00 0.00 0.00
0.01 0.00 0.00 0.00 0.00 0.00 0.00 0.00 0.00 0.00 0.00 0.00 0.00 0.00 0.00 0.00 0.00 0.00 0.00 0.00 0.00 0.00 0.00 0.00 0.00 0.00 0.00 0.00 0.00 0.00 0.00 0.00 0.00 0.00 0.00 0.00 0.00 0.00
0.01 0.00 0.00 0.00 0.00 0.00 0.00 0.00 0.00 0.00 0.00 0.00 0.00 0.00 0.00 0.00 0.00 0.00 0.00 0.00 0.00 0.00 0.00 0.00 0.00 0.00 0.00 0.00 0.00 0.00 0.00 0.00 0.00 0.00 0.00 0.00 0.00 0.00
MSLP
1008.12 1008.12 1008.13 1008.12 1008.08 1007.99 1007.86 1007.70 1007.52 1007.36 1007.25 1007.23 1007.31 1007.52 1007.85 1008.27 1008.75 1009.25 1009.74 1010.18 1010.54 1010.80 1010.97 1011.06 1011.08 1011.06 1011.02 1010.98 1010.96 1010.97 1011.01 1011.08 1011.17 1011.25 1011.33 1011.39 1011.44 1011.49
1007.48 1007.46 1007.44 1007.42 1007.37 1007.30 1007.21 1007.10 1007.01 1006.95 1006.97 1007.08 1007.30 1007.64 1008.08 1008.59 1009.15 1009.71 1010.24 1010.70 1011.07 1011.34 1011.51 1011.60 1011.63 1011.61 1011.57 1011.53 1011.51 1011.51 1011.53 1011.56 1011.60 1011.64 1011.66 1011.66 1011.65 1011.63
1006.89 1006.84 1006.79 1006.74 1006.67 1006.59 1006.51 1006.44 1006.41 1006.45 1006.58 1006.81 1007.16 1007.63 1008.19 1008.81 1009.45 1010.07 1010.64 1011.14 1011.53 1011.82 1012.01 1012.12 1012.18 1012.19 1012.18 1012.18 1012.17 1012.18 1012.20 1012.21 1012.22 1012.22 1012.20 1012.15 1012.09 1012.02
1006.43 1006.36 1006.28 1006.19 1006.10 1006.00 1005.91 1005.86 1005.88 1005.98 1006.19 1006.52 1006.99 1007.56 1008.21 1008.92 1009.63 1010.30 1010.92 1011.44 1011.86 1012.18 1012.41 1012.57 1012.67 1012.74 1012.79 1012.84 1012.88 1012.91 1012.94 1012.95 1012.95 1012.91 1012.85 1012.77 1012.68 1012.58
1006.13 1006.06 1005.97 1005.87 1005.75 1005.63 1005.54 1005.49 1005.52 1005.66 1005.92 1006.32 1006.85 1007.49 1008.20 1008.95 1009.70 1010.41 1011.04 1011.59 1012.03 1012.39 1012.66 1012.88 1013.05 1013.20 1013.33 1013.44 1013.54 1013.62 1013.68 1013.70 1013.68 1013.63 1013.55 1013.45 1013.33 1013.22
1005.98 1005.93 1005.86 1005.77 1005.66 1005.54 1005.44 1005.39 1005.42 1005.57 1005.85 1006.27 1006.81 1007.47 1008.20 1008.95 1009.70 1010.40 1011.04 1011.58 1012.04 1012.43 1012.75 1013.03 1013.29 1013.52 1013.73 1013.93 1014.10 1014.24 1014.33 1014.36 1014.35 1014.29 1014.19 1014.07 1013.95 1013.83
1005.90 1005.92 1005.90 1005.85 1005.78 1005.68 1005.59 1005.55 1005.59 1005.73 1005.99 1006.39 1006.92 1007.54 1008.23 1008.95 1009.66 1010.32 1010.92 1011.45 1011.91 1012.32 1012.69 1013.03 1013.36 1013.68 1013.98 1014.26 1014.50 1014.70 1014.82 1014.88 1014.87 1014.81 1014.71 1014.59 1014.46 1014.35
1005.83 1005.93 1006.00 1006.03 1006.02 1005.98 1005.93 1005.91 1005.95 1006.08 1006.32 1006.68 1007.15 1007.71 1008.33 1008.97 1009.60 1010.20 1010.74 1011.23 1011.68 1012.09 1012.49 1012.88 1013.28 1013.67 1014.06 1014.42 1014.72 1014.97 1015.13 1015.21 1015.22 1015.16 1015.06 1014.94 1014.83 1014.74
1005.66 1005.87 1006.05 1006.18 1006.27 1006.31 1006.33 1006.36 1006.42 1006.55 1006.77 1007.08 1007.48 1007.96 1008.48 1009.02 1009.56 1010.07 1010.54 1010.98 1011.40 1011.81 1012.22 1012.65 1013.09 1013.55 1013.99 1014.41 1014.77 1015.06 1015.25 1015.36 1015.38 1015.33 1015.25 1015.14 1015.05 1014.97
1005.36 1005.67 1005.97 1006.23 1006.43 1006.58 1006.69 1006.78 1006.89 1007.03 1007.24 1007.51 1007.85 1008.24 1008.68 1009.12 1009.55 1009.97 1010.37 1010.75 1011.13 1011.52 1011.93 1012.38 1012.85 1013.34 1013.83 1014.28 1014.68 1014.99 1015.21 1015.34 1015.38 1015.35 1015.29 1015.20 1015.13 1015.08
1004.91 1005.33 1005.74 1006.11 1006.43 1006.70 1006.91 1007.09 1007.26 1007.44 1007.66 1007.91 1008.21 1008.54 1008.89 1009.25 1009.60 1009.93 1010.26 1010.59 1010.92 1011.29 1011.69 1012.13 1012.61 1013.12 1013.62 1014.09 1014.50 1014.83 1015.06 1015.21 1015.27 1015.26 1015.22 1015.17 1015.13 1015.11
1004.39 1004.88 1005.38 1005.85 1006.28 1006.65 1006.97 1007.25 1007.50 1007.73 1007.98 1008.24 1008.52 1008.81 1009.11 1009.40 1009.68 1009.96 1010.23 1010.51 1010.81 1011.15 1011.53 1011.96 1012.43 1012.92 1013.42 1013.88 1014.29 1014.62 1014.86 1015.02 1015.09 1015.12 1015.11 1015.09 1015.08 1015.10
1003.87 1004.39 1004.94 1005.48 1005.99 1006.46 1006.87 1007.24 1007.58 1007.89 1008.18 1008.47 1008.76 1009.04 1009.31 1009.56 1009.81 1010.04 1010.27 1010.52 1010.79 1011.11 1011.47 1011.88 1012.33 1012.80 1013.27 1013.71 1014.09 1014.41 1014.65 1014.81 1014.91 1014.96 1014.98 1015.00 1015.03 1015.07
1003.42 1003.94 1004.51 1005.08 1005.64 1006.17 1006.66 1007.11 1007.53 1007.91 1008.27 1008.60 1008.91 1009.20 1009.47 1009.72 1009.94 1010.16 1010.38 1010.61 1010.87 1011.17 1011.51 1011.90 1012.32 1012.76 1013.19 1013.60 1013.95 1014.24 1014.46 1014.62 1014.73 1014.80 1014.85 1014.91 1014.97 1015.04
1003.09 1003.58 1004.12 1004.69 1005.27 1005.83 1006.37 1006.89 1007.38 1007.83 1008.25 1008.63 1008.99 1009.30 1009.58 1009.84 1010.07 1010.28 1010.50 1010.73 1010.99 1011.29 1011.62 1011.99 1012.39 1012.79 1013.18 1013.55 1013.86 1014.12 1014.32 1014.47 1014.58 1014.66 1014.73 1014.81 1014.90 1015.00
1002.89 1003.33 1003.81 1004.35 1004.90 1005.48 1006.05 1006.61 1007.15 1007.66 1008.14 1008.58 1008.97 1009.32 1009.63 1009.91 1010.15 1010.38 1010.62 1010.86 1011.13 1011.43 1011.77 1012.13 1012.50 1012.88 1013.23 1013.55 1013.82 1014.04 1014.21 1014.34 1014.44 1014.52 1014.61 1014.70 1014.81 1014.91
1002.79 1003.15 1003.57 1004.04 1004.56 1005.12 1005.70 1006.29 1006.88 1007.44 1007.97 1008.45 1008.89 1009.27 1009.61 1009.91 1010.18 1010.43 1010.69 1010.96 1011.25 1011.57 1011.91 1012.27 1012.63 1012.98 1013.30 1013.57 1013.80 1013.98 1014.12 1014.22 1014.30 1014.37 1014.46 1014.55 1014.66 1014.76
1002.75 1003.02 1003.36 1003.76 1004.24 1004.77 1005.35 1005.95 1006.56 1007.16 1007.73 1008.26 1008.73 1009.14 1009.51 1009.83 1010.13 1010.41 1010.69 1010.99 1011.31 1011.65 1012.01 1012.37 1012.73 1013.06 1013.35 1013.59 1013.78 1013.91 1014.01 1014.07 1014.13 1014.18 1014.25 1014.33 1014.43 1014.53
1002.69 1002.88 1003.14 1003.48 1003.91 1004.42 1004.99 1005.60 1006.23 1006.86 1007.46 1008.01 1008.51 1008.95 1009.34 1009.69 1010.01 1010.32 1010.63 1010.95 1011.30 1011.67 1012.04 1012.42 1012.77 1013.09 1013.35 1013.56 1013.71 1013.80 1013.86 1013.88 1013.90 1013.93 1013.97 1014.03 1014.11 1014.19
1002.60 1002.73 1002.92 1003.21 1003.59 1004.07 1004.63 1005.24 1005.89 1006.53 1007.16 1007.74 1008.26 1008.72 1009.13 1009.49 1009.83 1010.16 1010.50 1010.85 1011.22 1011.60 1012.00 1012.38 1012.73 1013.03 1013.28 1013.45 1013.57 1013.62 1013.64 1013.63 1013.61 1013.61 1013.62 1013.66 1013.71 1013.77
1002.49 1002.56 1002.70 1002.95 1003.30 1003.75 1004.30 1004.91 1005.57 1006.22 1006.86 1007.45 1007.98 1008.46 1008.88 1009.26 1009.61 1009.95 1010.30 1010.67 1011.06 1011.46 1011.86 1012.24 1012.58 1012.87 1013.09 1013.25 1013.33 1013.35 1013.33 1013.29 1013.24 1013.21 1013.20 1013.21 1013.24 1013.28
1002.37 1002.41 1002.52 1002.73 1003.06 1003.50 1004.03 1004.64 1005.29 1005.94 1006.58 1007.18 1007.71 1008.19 1008.62 1009.00 1009.36 1009.71 1010.07 1010.44 1010.83 1011.23 1011.62 1012.00 1012.32 1012.60 1012.80 1012.92 1012.98 1012.97 1012.93 1012.87 1012.80 1012.75 1012.72 1012.72 1012.73 1012.75
1002.28 1002.30 1002.39 1002.59 1002.90 1003.32 1003.84 1004.44 1005.07 1005.72 1006.35 1006.93 1007.46 1007.93 1008.35 1008.73 1009.08 1009.43 1009.79 1010.15 1010.54 1010.92 1011.30 1011.65 1011.96 1012.21 1012.38 1012.49 1012.52 1012.50 1012.45 1012.38 1012.31 1012.26 1012.23 1012.22 1012.23 1012.24
Thickness
5702 5701 5698 5697 5695 5693 5691 5687 5681 5679 5684 5689 5691 5694 5696 5695 5693 5692 5690 5689 5688 5688 5687 5687 5687 5688 5690 5692 5693 5694 5695 5695 5696 5698 5700 5702 5706 5710
5699 5698 5696 5696 5694 5693 5691 5689 5686 5682 5680 5685 5686 5686 5687 5685 5684 5682 5680 5678 5677 5676 5676 5675 5676 5677 5678 5680 5681 5682 5683 5684 5685 5687 5688 5690 5694 5698
5695 5695 5694 5694 5692 5691 5690 5689 5687 5684 5678 5677 5678 5677 5677 5675 5673 5671 5669 5668 5665 5665 5664 5664 5664 5665 5667 5668 5670 5671 5672 5673 5674 5676 5676 5678 5681 5685
5690 5690 5689 5690 5688 5688 5688 5687 5686 5684 5678 5670 5667 5667 5667 5666 5663 5661 5659 5657 5654 5653 5653 5653 5654 5655 5656 5657 5659 5660 5661 5663 5664 5665 5666 5668 5670 5672
5685 5684 5684 5684 5683 5683 5683 5684 5684 5682 5677 5668 5662 5660 5657 5656 5654 5651 5649 5646 5645 5642 5642 5643 5644 5645 5646 5647 5647 5649 5650 5652 5653 5654 5655 5657 5659 5662
5678 5678 5678 5677 5676 5677 5678 5679 5679 5675 5669 5663 5657 5652 5650 5647 5645 5642 5639 5638 5637 5637 5634 5634 5634 5635 5636 5636 5637 5638 5640 5642 5643 5644 5645 5647 5649 5651
5669 5670 5670 5669 5669 5670 5672 5673 5671 5667 5661 5655 5650 5645 5642 5640 5638 5636 5634 5632 5630 5629 5627 5626 5626 5626 5625 5626 5626 5628 5630 5631 5632 5634 5636 5637 5639 5641
5659 5660 5660 5660 5660 5662 5664 5665 5664 5660 5654 5649 5644 5640 5636 5635 5633 5633 5630 5628 5623 5623 5624 5621 5621 5619 5618 5617 5618 5620 5621 5623 5625 5626 5627 5628 5630 5631
5650 5651 5653 5652 5652 5653 5653 5654 5652 5650 5649 5645 5639 5635 5632 5631 5628 5627 5626 5625 5624 5622 5620 5616 5615 5613 5611 5610 5612 5614 5616 5617 5618 5619 5621 5622 5623 5623
5641 5643 5643 5643 5644 5645 5644 5643 5641 5639 5638 5636 5633 5629 5628 5627 5627 5625 5624 5622 5621 5620 5618 5610 5609 5608 5607 5606 5608 5609 5610 5611 5612 5613 5615 5616 5617 5617
5630 5634 5635 5635 5635 5637 5636 5633 5631 5628 5628 5627 5624 5622 5621 5622 5622 5620 5618 5615 5612 5612 5614 5610 5607 5605 5604 5603 5603 5604 5604 5605 5606 5608 5609 5611 5612 5611
5619 5624 5627 5627 5626 5628 5628 5627 5623 5620 5619 5617 5615 5615 5616 5616 5616 5616 5615 5613 5610 5608 5611 5611 5607 5606 5602 5602 5602 5601 5600 5601 5601 5602 5603 5604 5605 5605
5609 5613 5616 5616 5618 5619 5620 5620 5618 5616 5613 5612 5610 5610 5610 5610 5609 5610 5612 5612 5610 5607 5611 5611 5608 5608 5606 5602 5602 5602 5601 5600 5599 5599 5599 5599 5599 5599
5598 5606 5607 5607 5609 5610 5611 5611 5610 5610 5609 5606 5604 5603 5602 5601 5601 5602 5604 5607 5608 5606 5608 5609 5607 5607 5605 5602 5600 5601 5601 5601 5600 5599 5598 5596 5594 5592
5586 5595 5597 5598 5600 5602 5601 5602 5603 5604 5603 5601 5599 5598 5597 5595 5594 5595 5597 5600 5602 5604 5604 5604 5605 5606 5606 5603 5600 5599 5597 5597 5597 5595 5595 5594 5592 5589
5576 5582 5586 5589 5594 5594 5593 5594 5598 5600 5599 5598 5596 5592 5590 5589 5589 5591 5592 5594 5593 5594 5597 5599 5600 5601 5600 5599 5597 5595 5595 5593 5591 5590 5589 5589 5590 5587
5564 5572 5578 5582 5586 5587 5588 5590 5593 5595 5595 5594 5591 5588 5586 5586 5587 5590 5591 5591 5590 5589 5590 5593 5594 5595 5595 5594 5591 5590 5589 5587 5586 5584 5582 5582 5582 5581
5556 5567 5575 5581 5583 5584 5585 5587 5589 5590 5591 5590 5588 5586 5586 5586 5588 5590 5591 5590 5589 5588 5588 5589 5589 5588 5587 5585 5585 5584 5582 5580 5579 5579 5577 5574 5573 5573
5551 5564 5573 5578 5581 5582 5584 5586 5587 5587 5588 5587 5586 5586 5586 5587 5587 5588 5590 5590 5589 5589 5588 5587 5586 5584 5581 5580 5577 5579 5577 5574 5573 5571 5570 5568 5566 5565
5551 5563 5571 5577 5580 5582 5583 5584 5584 5584 5584 5584 5585 5585 5586 5586 5586 5587 5589 5589 5588 5587 5586 5585 5585 5583 5581 5580 5575 5573 5573 5571 5567 5565 5563 5562 5561 5560
5554 5564 5572 5576 5579 5581 5582 5582 5582 5581 5581 5583 5584 5585 5585 5585 5585 5587 5586 5585 5586 5584 5583 5580 5577 5577 5577 5575 5572 5570 5567 5566 5564 5560 5558 5555 5553 5551
5557 5565 5572 5576 5578 5580 5581 5581 5580 5579 5581 5582 5583 5584 5584 5585 5585 5585 5584 5582 5582 5583 5580 5575 5573 5572 5569 5567 5567 5567 5564 5560 5558 5556 5553 5550 5546 5545
5558 5565 5571 5576 5579 5581 5581 5581 5580 5580 5581 5583 5583 5583 5583 5584 5585 5584 5582 5580 5580 5579 5576 5571 5568 5566 5565 5564 5562 5561 5560 5557 5555 5551 5548 5548 5546 5544